When you browse on this site, cookies collect data to enhance your experience and personalize the content and advertising you see.
Visit our Privacy Policy to learn more. By continuing to use the site, you agree to this use of cookies and data.
  • In Romania
  • List of Countries
  • For 7 days
  • Water Temperature
  • Satellite Maps
  • Weather Map
  • Weather Widgets
  • user-avatar
    Login

    Hourly Weather Balashkovo

    Today, 21 March, Thursday

    Time Temperature Precipitation Wind Pressure Humidity
    00:00 -4°C° 0 mm 3 mps 749 mmHg 89%
    01:00 -4°C° 0 mm 3 mps 749 mmHg 88%
    02:00 -5°C° 0 mm 3 mps 748 mmHg 90%
    03:00 -5°C° 0 mm 3 mps 748 mmHg 90%
    04:00 -4°C° 0 mm 3 mps 747 mmHg 90%
    05:00 -4°C° 0 mm 3 mps 747 mmHg 90%
    06:00 -2°C° 0.1 mm 3 mps 747 mmHg 90%
    07:00 -2°C° 0.1 mm 3 mps 746 mmHg 91%
    08:00 -1°C° 0 mm 3 mps 746 mmHg 91%
    09:00 0°C° 0.1 mm 3 mps 746 mmHg 92%
    10:00 0°C° 0.1 mm 3 mps 746 mmHg 92%
    11:00 +1°C° 0.1 mm 3 mps 746 mmHg 93%
    12:00 +1°C° 0.1 mm 3 mps 747 mmHg 91%
    13:00 +1°C° 0.1 mm 3 mps 747 mmHg 89%
    14:00 +2°C° 0.1 mm 3 mps 747 mmHg 88%
    15:00 +1°C° 0 mm 3 mps 747 mmHg 87%
    16:00 +1°C° 0 mm 3 mps 747 mmHg 87%
    17:00 +2°C° 0 mm 2 mps 747 mmHg 87%
    18:00 +1°C° 0 mm 2 mps 747 mmHg 88%
    19:00 +1°C° 0 mm 2 mps 747 mmHg 89%
    20:00 -1°C° 0 mm 2 mps 747 mmHg 91%
    21:00 +1°C° 0 mm 2 mps 747 mmHg 91%
    22:00 +1°C° 0 mm 2 mps 746 mmHg 91%
    23:00 0°C° 0 mm 3 mps 746 mmHg 91%

    Tomorrow, 22 March, Friday

    Time Temperature Precipitation Wind Pressure Humidity
    00:00 0°C° 0 mm 3 mps 745 mmHg 91%
    01:00 -1°C° 0 mm 3 mps 745 mmHg 91%
    02:00 -1°C° 0 mm 3 mps 744 mmHg 91%
    03:00 -1°C° 0.2 mm 4 mps 743 mmHg 90%
    04:00 -1°C° 0.2 mm 4 mps 742 mmHg 90%
    05:00 -1°C° 0.2 mm 4 mps 741 mmHg 89%
    06:00 0°C° 1.2 mm 4 mps 740 mmHg 91%
    07:00 0°C° 1.2 mm 5 mps 739 mmHg 93%
    08:00 0°C° 1.2 mm 5 mps 738 mmHg 95%
    09:00 0°C° 0.8 mm 5 mps 738 mmHg 91%
    10:00 -1°C° 0.8 mm 6 mps 738 mmHg 87%
    11:00 -1°C° 0.8 mm 7 mps 739 mmHg 84%
    12:00 -1°C° 0.2 mm 7 mps 739 mmHg 80%
    13:00 -2°C° 0.2 mm 8 mps 740 mmHg 77%
    14:00 -2°C° 0.2 mm 8 mps 741 mmHg 73%
    15:00 -2°C° 0 mm 7 mps 741 mmHg 74%
    16:00 -2°C° 0 mm 7 mps 742 mmHg 75%
    17:00 -2°C° 0 mm 6 mps 742 mmHg 76%
    18:00 -3°C° 0 mm 6 mps 742 mmHg 78%
    19:00 -3°C° 0 mm 6 mps 743 mmHg 80%
    20:00 -3°C° 0 mm 6 mps 743 mmHg 83%
    21:00 -3°C° 0 mm 6 mps 744 mmHg 84%
    22:00 -3°C° 0 mm 6 mps 744 mmHg 85%
    23:00 -3°C° 0 mm 6 mps 745 mmHg 86%

    Day after tomorrow, 23 March, Saturday

    Time Temperature Precipitation Wind Pressure Humidity
    00:00 -3°C° 0 mm 6 mps 746 mmHg 87%
    01:00 -3°C° 0 mm 6 mps 746 mmHg 87%
    02:00 -2°C° 0 mm 5 mps 747 mmHg 87%
    03:00 -4°C° 0 mm 5 mps 748 mmHg 89%
    04:00 -3°C° 0 mm 4 mps 748 mmHg 91%
    05:00 -4°C° 0 mm 4 mps 749 mmHg 93%
    06:00 -3°C° 0 mm 4 mps 749 mmHg 93%
    07:00 -2°C° 0 mm 3 mps 750 mmHg 92%
    08:00 -1°C° 0 mm 3 mps 750 mmHg 92%
    09:00 -1°C° 0 mm 3 mps 750 mmHg 91%
    10:00 0°C° 0 mm 3 mps 751 mmHg 90%
    11:00 +2°C° 0 mm 2 mps 751 mmHg 89%
    12:00 +2°C° 0 mm 2 mps 751 mmHg 86%
    13:00 +4°C° 0 mm 1 mps 750 mmHg 83%
    14:00 +4°C° 0 mm 1 mps 750 mmHg 80%
    15:00 +4°C° 0 mm 1 mps 750 mmHg 82%
    16:00 +3°C° 0 mm 1 mps 750 mmHg 84%
    17:00 +3°C° 0 mm 1 mps 749 mmHg 85%
    18:00 +2°C° 0 mm 1 mps 749 mmHg 87%
    19:00 -1°C° 0 mm 2 mps 749 mmHg 88%
    20:00 -1°C° 0 mm 2 mps 748 mmHg 90%
    21:00 -1°C° 0 mm 3 mps 748 mmHg 89%
    22:00 -1°C° 0 mm 3 mps 747 mmHg 88%
    23:00 -2°C° 0 mm 4 mps 747 mmHg 87%

    24 March, Sunday

    Time Temperature Precipitation Wind Pressure Humidity
    00:00 -2°C° 0 mm 4 mps 746 mmHg 87%
    01:00 -2°C° 0 mm 5 mps 745 mmHg 86%
    02:00 -2°C° 0 mm 5 mps 745 mmHg 85%
    03:00 -2°C° 0.5 mm 5 mps 744 mmHg 87%
    04:00 -2°C° 0.5 mm 5 mps 743 mmHg 88%
    05:00 -1°C° 0.5 mm 5 mps 743 mmHg 90%
    06:00 -1°C° 0.1 mm 4 mps 743 mmHg 90%
    07:00 -1°C° 0.1 mm 4 mps 742 mmHg 91%
    08:00 -1°C° 0.1 mm 4 mps 742 mmHg 91%
    09:00 0°C° 0 mm 4 mps 742 mmHg 85%
    10:00 +1°C° 0 mm 4 mps 742 mmHg 79%
    11:00 +3°C° 0 mm 4 mps 742 mmHg 72%
    12:00 +3°C° 0.1 mm 4 mps 742 mmHg 69%
    13:00 +2°C° 0.1 mm 5 mps 742 mmHg 65%
    14:00 +3°C° 0.1 mm 5 mps 741 mmHg 62%
    15:00 +2°C° 0.1 mm 5 mps 742 mmHg 65%
    16:00 +1°C° 0.1 mm 4 mps 742 mmHg 68%
    17:00 0°C° 0.1 mm 4 mps 742 mmHg 71%
    18:00 0°C° 0 mm 3 mps 742 mmHg 74%
    19:00 -1°C° 0 mm 3 mps 742 mmHg 76%
    20:00 -2°C° 0 mm 3 mps 743 mmHg 79%
    21:00 -2°C° 0 mm 3 mps 743 mmHg 80%
    22:00 -2°C° 0 mm 3 mps 743 mmHg 81%
    23:00 -4°C° 0 mm 3 mps 742 mmHg 82%

    25 March, Monday

    Time Temperature Precipitation Wind Pressure Humidity
    00:00 -4°C° 0 mm 3 mps 742 mmHg 82%
    01:00 -4°C° 0 mm 3 mps 742 mmHg 82%
    02:00 -4°C° 0 mm 3 mps 742 mmHg 82%
    03:00 -5°C° 0 mm 3 mps 742 mmHg 82%
    04:00 -5°C° 0 mm 3 mps 742 mmHg 82%
    05:00 -5°C° 0 mm 3 mps 742 mmHg 81%
    06:00 -4°C° 0 mm 3 mps 742 mmHg 78%
    07:00 -4°C° 0 mm 4 mps 742 mmHg 74%
    08:00 -3°C° 0 mm 4 mps 743 mmHg 71%
    09:00 -1°C° 0 mm 3 mps 742 mmHg 66%
    10:00 0°C° 0 mm 3 mps 742 mmHg 61%
    11:00 +1°C° 0 mm 3 mps 742 mmHg 56%
    12:00 +1°C° 0 mm 3 mps 742 mmHg 55%
    13:00 +1°C° 0 mm 3 mps 741 mmHg 54%
    14:00 +2°C° 0 mm 3 mps 741 mmHg 54%
    15:00 +2°C° 0 mm 3 mps 741 mmHg 60%
    16:00 +1°C° 0 mm 3 mps 740 mmHg 66%
    17:00 +1°C° 0 mm 3 mps 740 mmHg 72%
    18:00 +1°C° 0.1 mm 3 mps 740 mmHg 75%
    19:00 +1°C° 0.1 mm 2 mps 740 mmHg 78%
    20:00 +1°C° 0.1 mm 2 mps 740 mmHg 81%
    21:00 -1°C° 0.1 mm 2 mps 739 mmHg 82%
    22:00 -1°C° 0.1 mm 2 mps 739 mmHg 83%
    23:00 -1°C° 0.1 mm 2 mps 739 mmHg 84%

    26 March, Tuesday

    Time Temperature Precipitation Wind Pressure Humidity
    00:00 -1°C° 0.1 mm 2 mps 739 mmHg 85%
    01:00 0°C° 0.1 mm 1 mps 739 mmHg 87%
    02:00 0°C° 0.1 mm 1 mps 739 mmHg 88%
    03:00 0°C° 0 mm 1 mps 739 mmHg 90%
    04:00 -1°C° 0 mm 1 mps 739 mmHg 91%
    05:00 -1°C° 0 mm 1 mps 739 mmHg 92%
    06:00 0°C° 0 mm 1 mps 739 mmHg 90%
    07:00 +1°C° 0 mm 1 mps 740 mmHg 87%
    08:00 -1°C° 0 mm 2 mps 740 mmHg 85%
    09:00 +1°C° 0.1 mm 2 mps 740 mmHg 82%
    10:00 0°C° 0.1 mm 3 mps 741 mmHg 80%
    11:00 0°C° 0.1 mm 4 mps 741 mmHg 78%
    12:00 0°C° 0.1 mm 4 mps 741 mmHg 78%
    13:00 0°C° 0.1 mm 4 mps 741 mmHg 79%
    14:00 0°C° 0.1 mm 4 mps 742 mmHg 79%
    15:00 0°C° 0 mm 4 mps 742 mmHg 80%
    16:00 0°C° 0 mm 4 mps 743 mmHg 82%
    17:00 0°C° 0 mm 4 mps 743 mmHg 83%
    18:00 -1°C° 0 mm 4 mps 744 mmHg 86%
    19:00 -2°C° 0 mm 4 mps 744 mmHg 89%
    20:00 -3°C° 0 mm 4 mps 745 mmHg 91%
    21:00 -3°C° 0 mm 4 mps 745 mmHg 93%
    22:00 -2°C° 0 mm 3 mps 745 mmHg 94%
    23:00 -4°C° 0 mm 3 mps 745 mmHg 95%
    Show more